SL-8 DEB, 45514

Orbit data source: Space-Track

SL-8 DEB, 45514 is space debris in LEO originally from a launch on Mon, 17 Mar 1980 UTC launched from the Plesetsk Missile And Space Complex (PKMTR). Debris objects in space refer to the collection of defunct objects orbiting the Earth. Examples of debris include non-operational satellites, rocket bodies, and fragments generated from explosions, collisions, or faulty payload assembly.

Loading next visibility...
Identifier
45514, 1980-022D
Orbit
LEO
Country
Flag of CISCIS
Related business
Manufacturer
Unknown
Mission
Spacecraft
Bus & Motor
Unknown
Mass
Unknown
Launch date (UTC)
1980-03-17 (46 years ago)
Launch vehicle
Unknown
Launch site
Plesetsk Missile And Space Complex (PKMTR)
Object type
Payload
Rocket body
Debris
Shape & HBR
Unknown shape, 0.1 m
Radar Cross Section
Small (<0.1 m²)

Expand to show TLE details & history
Last TLE update: 4 days ago

TLE from 4 days ago
0 SL-8 DEB
1 45514U 80022D   26169.89001242  .00000439  00000-0  40063-3 0  9993
2 45514  82.9412 226.1534 0030273 214.2516 145.6692 13.80871644612550
Epoch: 2026-06-18T21:21Z
TLE epoch observation values (Epoch: 2026-06-18T21:21:37.073Z)
Latitude
0.00002°
Longitude
-1.37792°
Altitude
982.076 km
Speed
7.351 km/s
True Right ascension
15h 04m 36s
True Declination
0° 00' 00"
Sunlit
Object was in full shadow at epoch
Visualization orbit readout
Latitude
Unknown
Longitude
Unknown
Altitude
Unknown
Speed
Unknown
Apparent Right ascension
Unknown
Apparent Declination
Unknown
Sunlit
N/A
Visualization observer readout
Local Sidereal Time
21:38:08
Azimuth
Unknown
Elevation
Unknown
Doppler factor
Unknown
Orbital elements
Apogee altitude
980.146 km
Perigee altitude
935.729 km
Semi-major axis
7,336.074 km
Eccentricity
0.00303
Inclination
82.9412°
RAAN
226.1534°
Arg. of periapsis
214.2516°
True anomaly
145.86423°
Mean anomaly
145.6692°
Eccentric anomaly
145.76678°
Mean motion
3.4542 °/min
Orbital period
104.22 mins
BSTAR
0.00040063
Loading maneuver chart data...
Computing Atmospheric mass density...
Loading historical data...
Loading historical data...
Loading historical data...
Loading historical data...
Loading historical data...
Loading historical data...
Loading historical data...
Other satellites on launch #22 in the year 1980 (1980-03-17 UTC)

Documentation

Showing up to 5 results
|